Year,Month,Day,Hour,Minute,Value (Times are PST for temperature in C)
2015,09,30,00,00,11.60
2015,09,30,00,01,11.60
2015,09,30,00,02,11.60
2015,09,30,00,03,11.60
2015,09,30,00,04,11.60
2015,09,30,00,05,11.60
2015,09,30,00,06,11.60
2015,09,30,00,07,11.50
2015,09,30,00,08,11.60
2015,09,30,00,09,11.50
2015,09,30,00,10,11.50
2015,09,30,00,11,11.50
2015,09,30,00,12,11.50
2015,09,30,00,13,11.50
2015,09,30,00,14,11.40
2015,09,30,00,15,11.40
2015,09,30,00,16,11.40
2015,09,30,00,17,11.40
2015,09,30,00,18,11.40
2015,09,30,00,19,11.40
2015,09,30,00,20,11.40
2015,09,30,00,21,11.40
2015,09,30,00,22,11.40
2015,09,30,00,23,11.40
2015,09,30,00,24,11.40
2015,09,30,00,25,11.30
2015,09,30,00,26,11.30
2015,09,30,00,27,11.30
2015,09,30,00,28,11.30
2015,09,30,00,29,11.30
2015,09,30,00,30,11.30
2015,09,30,00,31,11.30
2015,09,30,00,32,11.30
2015,09,30,00,33,11.30
2015,09,30,00,34,11.30
2015,09,30,00,35,11.30
2015,09,30,00,36,11.30
2015,09,30,00,37,11.30
2015,09,30,00,38,11.30
2015,09,30,00,39,11.30
2015,09,30,00,40,11.30
2015,09,30,00,41,11.30
2015,09,30,00,42,11.30
2015,09,30,00,43,11.30
2015,09,30,00,44,11.30
2015,09,30,00,45,11.20
2015,09,30,00,46,11.20
2015,09,30,00,47,11.20
2015,09,30,00,48,11.20
2015,09,30,00,49,11.20
2015,09,30,00,50,11.20
2015,09,30,00,51,11.20
2015,09,30,00,52,11.20
2015,09,30,00,53,11.20
2015,09,30,00,54,11.20
2015,09,30,00,55,11.20
2015,09,30,00,56,11.20
2015,09,30,00,57,11.20
2015,09,30,00,58,11.20
2015,09,30,00,59,11.10
2015,09,30,01,00,11.10
2015,09,30,01,01,11.10
2015,09,30,01,02,11.10
2015,09,30,01,03,11.10
2015,09,30,01,04,11.10
2015,09,30,01,05,11.10
2015,09,30,01,06,11.10
2015,09,30,01,07,11.10
2015,09,30,01,08,11.10
2015,09,30,01,09,11.10
2015,09,30,01,10,11.10
2015,09,30,01,11,11.10
2015,09,30,01,12,11.10
2015,09,30,01,13,11.10
2015,09,30,01,14,11.10
2015,09,30,01,15,11.10
2015,09,30,01,16,11.10
2015,09,30,01,17,11.10
2015,09,30,01,18,11.00
2015,09,30,01,19,11.00
2015,09,30,01,20,11.00
2015,09,30,01,21,11.00
2015,09,30,01,22,11.00
2015,09,30,01,23,11.00
2015,09,30,01,24,10.90
2015,09,30,01,25,10.90
2015,09,30,01,26,10.90
2015,09,30,01,27,10.90
2015,09,30,01,28,10.90
2015,09,30,01,29,10.90
2015,09,30,01,30,10.90
2015,09,30,01,31,10.90
2015,09,30,01,32,10.90
2015,09,30,01,33,10.90
2015,09,30,01,34,10.90
2015,09,30,01,35,10.90
2015,09,30,01,36,10.90
2015,09,30,01,37,10.90
2015,09,30,01,38,10.90
2015,09,30,01,39,10.90
2015,09,30,01,40,10.90
2015,09,30,01,41,10.90
2015,09,30,01,42,10.90
2015,09,30,01,43,10.90
2015,09,30,01,44,10.90
2015,09,30,01,45,10.90
2015,09,30,01,46,10.90
2015,09,30,01,47,10.80
2015,09,30,01,48,10.80
2015,09,30,01,49,10.80
2015,09,30,01,50,10.80
2015,09,30,01,51,10.80
2015,09,30,01,52,10.80
2015,09,30,01,53,10.80
2015,09,30,01,54,10.80
2015,09,30,01,55,10.80
2015,09,30,01,56,10.80
2015,09,30,01,57,10.80
2015,09,30,01,58,10.80
2015,09,30,01,59,10.80
2015,09,30,02,00,10.80
2015,09,30,02,01,10.80
2015,09,30,02,02,10.80
2015,09,30,02,03,10.80
2015,09,30,02,04,10.80
2015,09,30,02,05,10.80
2015,09,30,02,06,10.80
2015,09,30,02,07,10.80
2015,09,30,02,08,10.80
2015,09,30,02,09,10.80
2015,09,30,02,10,10.80
2015,09,30,02,11,10.70
2015,09,30,02,12,10.70
2015,09,30,02,13,10.70
2015,09,30,02,14,10.70
2015,09,30,02,15,10.70
2015,09,30,02,16,10.70
2015,09,30,02,17,10.70
2015,09,30,02,18,10.70
2015,09,30,02,19,10.70
2015,09,30,02,20,10.70
2015,09,30,02,21,10.70
2015,09,30,02,22,10.70
2015,09,30,02,23,10.70
2015,09,30,02,24,10.70
2015,09,30,02,25,10.70
2015,09,30,02,26,10.70
2015,09,30,02,27,10.70
2015,09,30,02,28,10.70
2015,09,30,02,29,10.70
2015,09,30,02,30,10.70
2015,09,30,02,31,10.70
2015,09,30,02,32,10.70
2015,09,30,02,33,10.70
2015,09,30,02,34,10.70
2015,09,30,02,35,10.70
2015,09,30,02,36,10.60
2015,09,30,02,37,10.70
2015,09,30,02,38,10.70
2015,09,30,02,39,10.70
2015,09,30,02,40,10.70
2015,09,30,02,41,10.70
2015,09,30,02,42,10.60
2015,09,30,02,43,10.60
2015,09,30,02,44,10.60
2015,09,30,02,45,10.60
2015,09,30,02,46,10.60
2015,09,30,02,47,10.60
2015,09,30,02,48,10.60
2015,09,30,02,49,10.60
2015,09,30,02,50,10.60
2015,09,30,02,51,10.60
2015,09,30,02,52,10.60
2015,09,30,02,53,10.60
2015,09,30,02,54,10.50
2015,09,30,02,55,10.50
2015,09,30,02,56,10.50
2015,09,30,02,57,10.50
2015,09,30,02,58,10.50
2015,09,30,02,59,10.50
2015,09,30,03,00,10.50
2015,09,30,03,01,10.50
2015,09,30,03,02,10.50
2015,09,30,03,03,10.50
2015,09,30,03,04,10.50
2015,09,30,03,05,10.50
2015,09,30,03,06,10.40
2015,09,30,03,07,10.40
2015,09,30,03,08,10.40
2015,09,30,03,09,10.40
2015,09,30,03,10,10.40
2015,09,30,03,11,10.40
2015,09,30,03,12,10.40
2015,09,30,03,13,10.40
2015,09,30,03,14,10.40
2015,09,30,03,15,10.50
2015,09,30,03,16,10.40
2015,09,30,03,17,10.50
2015,09,30,03,18,10.50
2015,09,30,03,19,10.50
2015,09,30,03,20,10.50
2015,09,30,03,21,10.50
2015,09,30,03,22,10.50
2015,09,30,03,23,10.40
2015,09,30,03,24,10.40
2015,09,30,03,25,10.40
2015,09,30,03,26,10.40
2015,09,30,03,27,10.40
2015,09,30,03,28,10.40
2015,09,30,03,29,10.40
2015,09,30,03,30,10.40
2015,09,30,03,31,10.40
2015,09,30,03,32,10.40
2015,09,30,03,33,10.40
2015,09,30,03,34,10.40
2015,09,30,03,35,10.40
2015,09,30,03,36,10.30
2015,09,30,03,37,10.30
2015,09,30,03,38,10.30
2015,09,30,03,39,10.30
2015,09,30,03,40,10.30
2015,09,30,03,41,10.40
2015,09,30,03,42,10.40
2015,09,30,03,43,10.40
2015,09,30,03,44,10.40
2015,09,30,03,45,10.40
2015,09,30,03,46,10.40
2015,09,30,03,47,10.40
2015,09,30,03,48,10.40
2015,09,30,03,49,10.40
2015,09,30,03,50,10.40
2015,09,30,03,51,10.40
2015,09,30,03,52,10.40
2015,09,30,03,53,10.40
2015,09,30,03,54,10.40
2015,09,30,03,55,10.40
2015,09,30,03,56,10.40
2015,09,30,03,57,10.40
2015,09,30,03,58,10.40
2015,09,30,03,59,10.40
2015,09,30,04,00,10.40
2015,09,30,04,01,10.40
2015,09,30,04,02,10.40
2015,09,30,04,03,10.40
2015,09,30,04,04,10.40
2015,09,30,04,05,10.40
2015,09,30,04,06,10.40
2015,09,30,04,07,10.30
2015,09,30,04,08,10.30
2015,09,30,04,09,10.30
2015,09,30,04,10,10.30
2015,09,30,04,11,10.30
2015,09,30,04,12,10.20
2015,09,30,04,13,10.20
2015,09,30,04,14,10.20
2015,09,30,04,15,10.20
2015,09,30,04,16,10.20
2015,09,30,04,17,10.10
2015,09,30,04,18,10.10
2015,09,30,04,19,10.10
2015,09,30,04,20,10.10
2015,09,30,04,21,10.10
2015,09,30,04,22,10.20
2015,09,30,04,23,10.20
2015,09,30,04,24,10.20
2015,09,30,04,25,10.20
2015,09,30,04,26,10.10
2015,09,30,04,27,10.10
2015,09,30,04,28,10.10
2015,09,30,04,29,10.10
2015,09,30,04,30,10.10
2015,09,30,04,31,10.10
2015,09,30,04,32,10.10
2015,09,30,04,33,10.10
2015,09,30,04,34,10.10
2015,09,30,04,35,10.10
2015,09,30,04,36,10.10
2015,09,30,04,37,10.10
2015,09,30,04,38,10.10
2015,09,30,04,39,10.10
2015,09,30,04,40,10.10
2015,09,30,04,41,10.10
2015,09,30,04,42,10.10
2015,09,30,04,43,10.10
2015,09,30,04,44,10.00
2015,09,30,04,45,10.00
2015,09,30,04,46,10.00
2015,09,30,04,47,10.00
2015,09,30,04,48,10.00
2015,09,30,04,49,9.90
2015,09,30,04,50,9.90
2015,09,30,04,51,9.90
2015,09,30,04,52,9.90
2015,09,30,04,53,9.90
2015,09,30,04,54,9.90
2015,09,30,04,55,9.90
2015,09,30,04,56,9.90
2015,09,30,04,57,9.90
2015,09,30,04,58,9.90
2015,09,30,04,59,9.90
2015,09,30,05,00,9.90
2015,09,30,05,01,9.90
2015,09,30,05,02,9.90
2015,09,30,05,03,9.90
2015,09,30,05,04,9.90
2015,09,30,05,05,9.90
2015,09,30,05,06,9.80
2015,09,30,05,07,9.80
2015,09,30,05,08,9.80
2015,09,30,05,09,9.80
2015,09,30,05,10,9.80
2015,09,30,05,11,9.80
2015,09,30,05,12,9.80
2015,09,30,05,13,9.80
2015,09,30,05,14,9.80
2015,09,30,05,15,9.80
2015,09,30,05,16,9.80
2015,09,30,05,17,9.80
2015,09,30,05,18,9.80
2015,09,30,05,19,9.80
2015,09,30,05,20,9.80
2015,09,30,05,21,9.80
2015,09,30,05,22,9.80
2015,09,30,05,23,9.80
2015,09,30,05,24,9.80
2015,09,30,05,25,9.80
2015,09,30,05,26,9.80
2015,09,30,05,27,9.80
2015,09,30,05,28,9.80
2015,09,30,05,29,9.80
2015,09,30,05,30,9.80
2015,09,30,05,31,9.80
2015,09,30,05,32,9.80
2015,09,30,05,33,9.80
2015,09,30,05,34,9.80
2015,09,30,05,35,9.80
2015,09,30,05,36,9.80
2015,09,30,05,37,9.80
2015,09,30,05,38,9.80
2015,09,30,05,39,9.80
2015,09,30,05,40,9.80
2015,09,30,05,41,9.80
2015,09,30,05,42,9.80
2015,09,30,05,43,9.80
2015,09,30,05,44,9.80
2015,09,30,05,45,9.80
2015,09,30,05,46,9.80
2015,09,30,05,47,9.80
2015,09,30,05,48,9.70
2015,09,30,05,49,9.70
2015,09,30,05,50,9.70
2015,09,30,05,51,9.60
2015,09,30,05,52,9.60
2015,09,30,05,53,9.60
2015,09,30,05,54,9.60
2015,09,30,05,55,9.60
2015,09,30,05,56,9.60
2015,09,30,05,57,9.60
2015,09,30,05,58,9.60
2015,09,30,05,59,9.60
2015,09,30,06,00,9.60
2015,09,30,06,01,9.60
2015,09,30,06,02,9.60
2015,09,30,06,03,9.60
2015,09,30,06,04,9.60
2015,09,30,06,05,9.60
2015,09,30,06,06,9.60
2015,09,30,06,07,9.60
2015,09,30,06,08,9.60
2015,09,30,06,09,9.60
2015,09,30,06,10,9.60
2015,09,30,06,11,9.60
2015,09,30,06,12,9.60
2015,09,30,06,13,9.60
2015,09,30,06,14,9.60
2015,09,30,06,15,9.60
2015,09,30,06,16,9.60
2015,09,30,06,17,9.60
2015,09,30,06,18,9.60
2015,09,30,06,19,9.60
2015,09,30,06,20,9.60
2015,09,30,06,21,9.60
2015,09,30,06,22,9.60
2015,09,30,06,23,9.60
2015,09,30,06,24,9.60
2015,09,30,06,25,9.60
2015,09,30,06,26,9.60
2015,09,30,06,27,9.50
2015,09,30,06,28,9.50
2015,09,30,06,29,9.50
2015,09,30,06,30,9.50
2015,09,30,06,31,9.50
2015,09,30,06,32,9.50
2015,09,30,06,33,9.50
2015,09,30,06,34,9.50
2015,09,30,06,35,9.50
2015,09,30,06,36,9.50
2015,09,30,06,37,9.50
2015,09,30,06,38,9.50
2015,09,30,06,39,9.50
2015,09,30,06,40,9.50
2015,09,30,06,41,9.50
2015,09,30,06,42,9.50
2015,09,30,06,43,9.50
2015,09,30,06,44,9.50
2015,09,30,06,45,9.50
2015,09,30,06,46,9.50
2015,09,30,06,47,9.50
2015,09,30,06,48,9.40
2015,09,30,06,49,9.40
2015,09,30,06,50,9.40
2015,09,30,06,51,9.40
2015,09,30,06,52,9.40
2015,09,30,06,53,9.40
2015,09,30,06,54,9.40
2015,09,30,06,55,9.40
2015,09,30,06,56,9.30
2015,09,30,06,57,9.30
2015,09,30,06,58,9.30
2015,09,30,06,59,9.30
2015,09,30,07,00,9.30
2015,09,30,07,01,9.30
2015,09,30,07,02,9.40
2015,09,30,07,03,9.30
2015,09,30,07,04,9.30
2015,09,30,07,05,9.30
2015,09,30,07,06,9.30
2015,09,30,07,07,9.30
2015,09,30,07,08,9.30
2015,09,30,07,09,9.30
2015,09,30,07,10,9.30
2015,09,30,07,11,9.30
2015,09,30,07,12,9.30
2015,09,30,07,13,9.30
2015,09,30,07,14,9.30
2015,09,30,07,15,9.30
2015,09,30,07,16,9.30
2015,09,30,07,17,9.30
2015,09,30,07,18,9.30
2015,09,30,07,19,9.20
2015,09,30,07,20,9.20
2015,09,30,07,21,9.20
2015,09,30,07,22,9.20
2015,09,30,07,23,9.20
2015,09,30,07,24,9.20
2015,09,30,07,25,9.20
2015,09,30,07,26,9.30
2015,09,30,07,27,9.30
2015,09,30,07,28,9.30
2015,09,30,07,29,9.30
2015,09,30,07,30,9.30
2015,09,30,07,31,9.30
2015,09,30,07,32,9.40
2015,09,30,07,33,9.40
2015,09,30,07,34,9.40
2015,09,30,07,35,9.40
2015,09,30,07,36,9.40
2015,09,30,07,37,9.50
2015,09,30,07,38,9.50
2015,09,30,07,39,9.50
2015,09,30,07,40,9.60
2015,09,30,07,41,9.60
2015,09,30,07,42,9.60
2015,09,30,07,43,9.60
2015,09,30,07,44,9.70
2015,09,30,07,45,9.70
2015,09,30,07,46,9.70
2015,09,30,07,47,9.80
2015,09,30,07,48,9.80
2015,09,30,07,49,9.80
2015,09,30,07,50,9.80
2015,09,30,07,51,9.90
2015,09,30,07,52,9.90
2015,09,30,07,53,9.90
2015,09,30,07,54,10.00
2015,09,30,07,55,10.10
2015,09,30,07,56,10.10
2015,09,30,07,57,10.10
2015,09,30,07,58,10.20
2015,09,30,07,59,10.20
2015,09,30,08,00,10.20
2015,09,30,08,01,10.30
2015,09,30,08,02,10.30
2015,09,30,08,03,10.30
2015,09,30,08,04,10.40
2015,09,30,08,05,10.40
2015,09,30,08,06,10.50
2015,09,30,08,07,10.50
2015,09,30,08,08,10.50
2015,09,30,08,09,10.60
2015,09,30,08,10,10.60
2015,09,30,08,11,10.70
2015,09,30,08,12,10.70
2015,09,30,08,13,10.70
2015,09,30,08,14,10.80
2015,09,30,08,15,10.80
2015,09,30,08,16,10.80
2015,09,30,08,17,10.80
2015,09,30,08,18,10.80
2015,09,30,08,19,10.90
2015,09,30,08,20,10.90
2015,09,30,08,21,11.00
2015,09,30,08,22,11.00
2015,09,30,08,23,11.10
2015,09,30,08,24,11.10
2015,09,30,08,25,11.10
2015,09,30,08,26,11.10
2015,09,30,08,27,11.10
2015,09,30,08,28,11.20
2015,09,30,08,29,11.20
2015,09,30,08,30,11.30
2015,09,30,08,31,11.40
2015,09,30,08,32,11.40
2015,09,30,08,33,11.50
2015,09,30,08,34,11.60
2015,09,30,08,35,11.70
2015,09,30,08,36,11.80
2015,09,30,08,37,11.90
2015,09,30,08,38,12.00
2015,09,30,08,39,12.00
2015,09,30,08,40,12.10
2015,09,30,08,41,12.20
2015,09,30,08,42,12.30
2015,09,30,08,43,12.40
2015,09,30,08,44,12.50
2015,09,30,08,45,12.50
2015,09,30,08,46,12.60
2015,09,30,08,47,12.70
2015,09,30,08,48,12.70
2015,09,30,08,49,12.80
2015,09,30,08,50,12.90
2015,09,30,08,51,12.90
2015,09,30,08,52,13.00
2015,09,30,08,53,13.00
2015,09,30,08,54,13.10
2015,09,30,08,55,13.10
2015,09,30,08,56,13.20
2015,09,30,08,57,13.20
2015,09,30,08,58,13.20
2015,09,30,08,59,13.30
2015,09,30,09,00,13.30
2015,09,30,09,01,13.30
2015,09,30,09,02,13.40
2015,09,30,09,03,13.40
2015,09,30,09,04,13.40
2015,09,30,09,05,13.50
2015,09,30,09,06,13.50
2015,09,30,09,07,13.60
2015,09,30,09,08,13.60
2015,09,30,09,09,13.60
2015,09,30,09,10,13.60
2015,09,30,09,11,13.70
2015,09,30,09,12,13.70
2015,09,30,09,13,13.70
2015,09,30,09,14,13.70
2015,09,30,09,15,13.70
2015,09,30,09,16,13.70
2015,09,30,09,17,13.70
2015,09,30,09,18,13.70
2015,09,30,09,19,13.80
2015,09,30,09,20,13.70
2015,09,30,09,21,13.70
2015,09,30,09,22,13.70
2015,09,30,09,23,13.70
2015,09,30,09,24,13.70
2015,09,30,09,25,13.70
2015,09,30,09,26,13.70
2015,09,30,09,27,13.70
2015,09,30,09,28,13.70
2015,09,30,09,29,13.70
2015,09,30,09,30,13.80
2015,09,30,09,31,13.80
2015,09,30,09,32,13.80
2015,09,30,09,33,13.90
2015,09,30,09,34,13.90
2015,09,30,09,35,13.90
2015,09,30,09,36,14.00
2015,09,30,09,37,14.10
2015,09,30,09,38,14.10
2015,09,30,09,39,14.10
2015,09,30,09,40,14.10
2015,09,30,09,41,14.10
2015,09,30,09,42,14.10
2015,09,30,09,43,14.20
2015,09,30,09,44,14.20
2015,09,30,09,45,14.20
2015,09,30,09,46,14.20
2015,09,30,09,47,14.20
2015,09,30,09,48,14.30
2015,09,30,09,49,14.30
2015,09,30,09,50,14.30
2015,09,30,09,51,14.40
2015,09,30,09,52,14.50
2015,09,30,09,53,14.50
2015,09,30,09,54,14.60
2015,09,30,09,55,14.60
2015,09,30,09,56,14.60
2015,09,30,09,57,14.60
2015,09,30,09,58,14.60
2015,09,30,09,59,14.60
2015,09,30,10,00,14.60
2015,09,30,10,01,14.60
2015,09,30,10,02,14.60
2015,09,30,10,03,14.60
2015,09,30,10,04,14.60
2015,09,30,10,05,14.60
2015,09,30,10,06,14.60
2015,09,30,10,07,14.60
2015,09,30,10,08,14.60
2015,09,30,10,09,14.60
2015,09,30,10,10,14.60
2015,09,30,10,11,14.60
2015,09,30,10,12,14.60
2015,09,30,10,13,14.60
2015,09,30,10,14,14.60
2015,09,30,10,15,14.50
2015,09,30,10,16,14.50
2015,09,30,10,17,14.50
2015,09,30,10,18,14.50
2015,09,30,10,19,14.50
2015,09,30,10,20,14.40
2015,09,30,10,21,14.40
2015,09,30,10,22,14.40
2015,09,30,10,23,14.40
2015,09,30,10,24,14.40
2015,09,30,10,25,14.40
2015,09,30,10,26,14.40
2015,09,30,10,27,14.40
2015,09,30,10,28,14.40
2015,09,30,10,29,14.40
2015,09,30,10,30,14.40
2015,09,30,10,31,14.40
2015,09,30,10,32,14.40
2015,09,30,10,33,14.50
2015,09,30,10,34,14.50
2015,09,30,10,35,14.50
2015,09,30,10,36,14.50
2015,09,30,10,37,14.50
2015,09,30,10,38,14.50
2015,09,30,10,39,14.50
2015,09,30,10,40,14.50
2015,09,30,10,41,14.50
2015,09,30,10,42,14.50
2015,09,30,10,43,14.60
2015,09,30,10,44,14.60
2015,09,30,10,45,14.60
2015,09,30,10,46,14.60
2015,09,30,10,47,14.60
2015,09,30,10,48,14.60
2015,09,30,10,49,14.60
2015,09,30,10,50,14.60
2015,09,30,10,51,14.60
2015,09,30,10,52,14.60
2015,09,30,10,53,14.60
2015,09,30,10,54,14.60
2015,09,30,10,55,14.60
2015,09,30,10,56,14.70
2015,09,30,10,57,14.70
2015,09,30,10,58,14.70
2015,09,30,10,59,14.70
2015,09,30,11,00,14.70
2015,09,30,11,01,14.70
2015,09,30,11,02,14.70
2015,09,30,11,03,14.70
2015,09,30,11,04,14.70
2015,09,30,11,05,14.80
2015,09,30,11,06,14.80
2015,09,30,11,07,14.80
2015,09,30,11,08,14.80
2015,09,30,11,09,14.80
2015,09,30,11,10,14.80
2015,09,30,11,11,14.80
2015,09,30,11,12,14.80
2015,09,30,11,13,14.80
2015,09,30,11,14,14.80
2015,09,30,11,15,14.80
2015,09,30,11,16,14.80
2015,09,30,11,17,14.80
2015,09,30,11,18,14.80
2015,09,30,11,19,14.80
2015,09,30,11,20,14.80
2015,09,30,11,21,14.80
2015,09,30,11,22,14.80
2015,09,30,11,23,14.80
2015,09,30,11,24,14.80
2015,09,30,11,25,14.80
2015,09,30,11,26,14.80
2015,09,30,11,27,14.80
2015,09,30,11,28,14.80
2015,09,30,11,29,14.80
2015,09,30,11,30,14.80
2015,09,30,11,31,14.80
2015,09,30,11,32,14.80
2015,09,30,11,33,14.80
2015,09,30,11,34,14.80
2015,09,30,11,35,14.70
2015,09,30,11,36,14.70
2015,09,30,11,37,14.60
2015,09,30,11,38,14.60
2015,09,30,11,39,14.50
2015,09,30,11,40,14.50
2015,09,30,11,41,14.40
2015,09,30,11,42,14.40
2015,09,30,11,43,14.30
2015,09,30,11,44,14.30
2015,09,30,11,45,14.30
2015,09,30,11,46,14.30
2015,09,30,11,47,14.30
2015,09,30,11,48,14.30
2015,09,30,11,49,14.40
2015,09,30,11,50,14.40
2015,09,30,11,51,14.40
2015,09,30,11,52,14.40
2015,09,30,11,53,14.50
2015,09,30,11,54,14.50
2015,09,30,11,55,14.50
2015,09,30,11,56,14.60
2015,09,30,11,57,14.60
2015,09,30,11,58,14.50
2015,09,30,11,59,14.50
2015,09,30,12,00,14.40
2015,09,30,12,01,14.40
2015,09,30,12,02,14.40
2015,09,30,12,03,14.30
2015,09,30,12,04,14.30
2015,09,30,12,05,14.30
2015,09,30,12,06,14.30
2015,09,30,12,07,14.20
2015,09,30,12,08,14.20
2015,09,30,12,09,14.20
2015,09,30,12,10,14.10
2015,09,30,12,11,14.10
2015,09,30,12,12,14.10
2015,09,30,12,13,14.10
2015,09,30,12,14,14.10
2015,09,30,12,15,14.00
2015,09,30,12,16,14.00
2015,09,30,12,17,13.90
2015,09,30,12,18,13.90
2015,09,30,12,19,13.80
2015,09,30,12,20,13.80
2015,09,30,12,21,13.80
2015,09,30,12,22,13.80
2015,09,30,12,23,13.70
2015,09,30,12,24,13.70
2015,09,30,12,25,13.70
2015,09,30,12,26,13.70
2015,09,30,12,27,13.70
2015,09,30,12,28,13.70
2015,09,30,12,29,13.70
2015,09,30,12,30,13.70
2015,09,30,12,31,13.70
2015,09,30,12,32,13.70
2015,09,30,12,33,13.70
2015,09,30,12,34,13.70
2015,09,30,12,35,13.70
2015,09,30,12,36,13.70
2015,09,30,12,37,13.70
2015,09,30,12,38,13.70
2015,09,30,12,39,13.60
2015,09,30,12,40,13.60
2015,09,30,12,41,13.60
2015,09,30,12,42,13.60
2015,09,30,12,43,13.50
2015,09,30,12,44,13.50
2015,09,30,12,45,13.60
2015,09,30,12,46,13.60
2015,09,30,12,47,13.50
2015,09,30,12,48,13.50
2015,09,30,12,49,13.60
2015,09,30,12,50,13.60
2015,09,30,12,51,13.70
2015,09,30,12,52,13.70
2015,09,30,12,53,13.80
2015,09,30,12,54,13.90
2015,09,30,12,55,13.90
2015,09,30,12,56,14.00
2015,09,30,12,57,14.00
2015,09,30,12,58,14.10
2015,09,30,12,59,14.10
2015,09,30,13,00,14.10
2015,09,30,13,01,14.20
2015,09,30,13,02,14.20
2015,09,30,13,03,14.20
2015,09,30,13,04,14.20
2015,09,30,13,05,14.20
2015,09,30,13,06,14.20
2015,09,30,13,07,14.20
2015,09,30,13,08,14.20
2015,09,30,13,09,14.20
2015,09,30,13,10,14.20
2015,09,30,13,11,14.20
2015,09,30,13,12,14.10
2015,09,30,13,13,14.10
2015,09,30,13,14,14.10
2015,09,30,13,15,14.10
2015,09,30,13,16,14.10
2015,09,30,13,17,14.10
2015,09,30,13,18,14.10
2015,09,30,13,19,14.10
2015,09,30,13,20,14.20
2015,09,30,13,21,14.20
2015,09,30,13,22,14.30
2015,09,30,13,23,14.30
2015,09,30,13,24,14.40
2015,09,30,13,25,14.40
2015,09,30,13,26,14.50
2015,09,30,13,27,14.60
2015,09,30,13,28,14.70
2015,09,30,13,29,14.70
2015,09,30,13,30,14.70
2015,09,30,13,31,14.70
2015,09,30,13,32,14.80
2015,09,30,13,33,14.80
2015,09,30,13,34,14.90
2015,09,30,13,35,15.00
2015,09,30,13,36,15.10
2015,09,30,13,37,15.20
2015,09,30,13,38,15.30
2015,09,30,13,39,15.40
2015,09,30,13,40,15.60
2015,09,30,13,41,15.70
2015,09,30,13,42,15.80
2015,09,30,13,43,15.90
2015,09,30,13,44,16.00
2015,09,30,13,45,16.10
2015,09,30,13,46,16.20
2015,09,30,13,47,16.20
2015,09,30,13,48,16.30
2015,09,30,13,49,16.40
2015,09,30,13,50,16.40
2015,09,30,13,51,16.50
2015,09,30,13,52,16.60
2015,09,30,13,53,16.70
2015,09,30,13,54,16.80
2015,09,30,13,55,16.90
2015,09,30,13,56,17.00
2015,09,30,13,57,17.10
2015,09,30,13,58,17.20
2015,09,30,13,59,17.30
2015,09,30,14,00,17.40
2015,09,30,14,01,17.50
2015,09,30,14,02,17.60
2015,09,30,14,03,17.60
2015,09,30,14,04,17.70
2015,09,30,14,05,17.70
2015,09,30,14,06,17.80
2015,09,30,14,07,17.80
2015,09,30,14,08,17.80
2015,09,30,14,09,17.90
2015,09,30,14,10,18.00
2015,09,30,14,11,18.10
2015,09,30,14,12,18.10
2015,09,30,14,13,18.20
2015,09,30,14,14,18.20
2015,09,30,14,15,18.30
2015,09,30,14,16,18.30
2015,09,30,14,17,18.30
2015,09,30,14,18,18.40
2015,09,30,14,19,18.50
2015,09,30,14,20,18.50
2015,09,30,14,21,18.60
2015,09,30,14,22,18.70
2015,09,30,14,23,18.70
2015,09,30,14,24,18.70
2015,09,30,14,25,18.70
2015,09,30,14,26,18.80
2015,09,30,14,27,18.80
2015,09,30,14,28,18.80
2015,09,30,14,29,18.90
2015,09,30,14,30,18.90
2015,09,30,14,31,18.90
2015,09,30,14,32,18.90
2015,09,30,14,33,18.90
2015,09,30,14,34,18.90
2015,09,30,14,35,18.90
2015,09,30,14,36,18.90
2015,09,30,14,37,18.90
2015,09,30,14,38,18.90
2015,09,30,14,39,18.90
2015,09,30,14,40,18.90
2015,09,30,14,41,18.90
2015,09,30,14,42,18.90
2015,09,30,14,43,19.00
2015,09,30,14,44,19.00
2015,09,30,14,45,19.00
2015,09,30,14,46,19.00
2015,09,30,14,47,19.00
2015,09,30,14,48,19.00
2015,09,30,14,49,19.10
2015,09,30,14,50,19.10
2015,09,30,14,51,19.20
2015,09,30,14,52,19.30
2015,09,30,14,53,19.30
2015,09,30,14,54,19.30
2015,09,30,14,55,19.40
2015,09,30,14,56,19.40
2015,09,30,14,57,19.40
2015,09,30,14,58,19.50
2015,09,30,14,59,19.50
2015,09,30,15,00,19.50
2015,09,30,15,01,19.50
2015,09,30,15,02,19.40
2015,09,30,15,03,19.40
2015,09,30,15,04,19.40
2015,09,30,15,05,19.40
2015,09,30,15,06,19.50
2015,09,30,15,07,19.50
2015,09,30,15,08,19.60
2015,09,30,15,09,19.60
2015,09,30,15,10,19.60
2015,09,30,15,11,19.60
2015,09,30,15,12,19.70
2015,09,30,15,13,19.70
2015,09,30,15,14,19.70
2015,09,30,15,15,19.70
2015,09,30,15,16,19.70
2015,09,30,15,17,19.70
2015,09,30,15,18,19.80
2015,09,30,15,19,19.80
2015,09,30,15,20,19.80
2015,09,30,15,21,19.90
2015,09,30,15,22,19.90
2015,09,30,15,23,19.80
2015,09,30,15,24,19.80
2015,09,30,15,25,19.80
2015,09,30,15,26,19.70
2015,09,30,15,27,19.60
2015,09,30,15,28,19.50
2015,09,30,15,29,19.40
2015,09,30,15,30,19.40
2015,09,30,15,31,19.40
2015,09,30,15,32,19.40
2015,09,30,15,33,19.40
2015,09,30,15,34,19.50
2015,09,30,15,35,19.60
2015,09,30,15,36,19.60
2015,09,30,15,37,19.70
2015,09,30,15,38,19.70
2015,09,30,15,39,19.70
2015,09,30,15,40,19.70
2015,09,30,15,41,19.70
2015,09,30,15,42,19.70
2015,09,30,15,43,19.80
2015,09,30,15,44,19.80
2015,09,30,15,45,19.70
2015,09,30,15,46,19.70
2015,09,30,15,47,19.60
2015,09,30,15,48,19.60
2015,09,30,15,49,19.60
2015,09,30,15,50,19.60
2015,09,30,15,51,19.60
2015,09,30,15,52,19.70
2015,09,30,15,53,19.70
2015,09,30,15,54,19.70
2015,09,30,15,55,19.80
2015,09,30,15,56,19.80
2015,09,30,15,57,19.80
2015,09,30,15,58,19.80
2015,09,30,15,59,19.80
2015,09,30,16,00,19.80
2015,09,30,16,01,19.80
2015,09,30,16,02,19.80
2015,09,30,16,03,19.80
2015,09,30,16,04,19.80
2015,09,30,16,05,19.80
2015,09,30,16,06,19.80
2015,09,30,16,07,19.80
2015,09,30,16,08,19.80
2015,09,30,16,09,19.90
2015,09,30,16,10,20.00
2015,09,30,16,11,20.00
2015,09,30,16,12,20.10
2015,09,30,16,13,20.10
2015,09,30,16,14,20.20
2015,09,30,16,15,20.20
2015,09,30,16,16,20.20
2015,09,30,16,17,20.20
2015,09,30,16,18,20.20
2015,09,30,16,19,20.30
2015,09,30,16,20,20.30
2015,09,30,16,21,20.30
2015,09,30,16,22,20.20
2015,09,30,16,23,20.20
2015,09,30,16,24,20.30
2015,09,30,16,25,20.30
2015,09,30,16,26,20.30
2015,09,30,16,27,20.30
2015,09,30,16,28,20.40
2015,09,30,16,29,20.40
2015,09,30,16,30,20.50
2015,09,30,16,31,20.50
2015,09,30,16,32,20.50
2015,09,30,16,33,20.50
2015,09,30,16,34,20.50
2015,09,30,16,35,20.40
2015,09,30,16,36,20.40
2015,09,30,16,37,20.40
2015,09,30,16,38,20.30
2015,09,30,16,39,20.30
2015,09,30,16,40,20.30
2015,09,30,16,41,20.30
2015,09,30,16,42,20.20
2015,09,30,16,43,20.20
2015,09,30,16,44,20.30
2015,09,30,16,45,20.30
2015,09,30,16,46,20.30
2015,09,30,16,47,20.30
2015,09,30,16,48,20.30
2015,09,30,16,49,20.20
2015,09,30,16,50,20.20
2015,09,30,16,51,20.10
2015,09,30,16,52,20.10
2015,09,30,16,53,20.00
2015,09,30,16,54,19.90
2015,09,30,16,55,19.90
2015,09,30,16,56,19.80
2015,09,30,16,57,19.70
2015,09,30,16,58,19.70
2015,09,30,16,59,19.70
2015,09,30,17,00,19.80
2015,09,30,17,01,19.80
2015,09,30,17,02,19.90
2015,09,30,17,03,19.90
2015,09,30,17,04,20.00
2015,09,30,17,05,20.10
2015,09,30,17,06,20.10
2015,09,30,17,07,20.10
2015,09,30,17,08,20.10
2015,09,30,17,09,20.20
2015,09,30,17,10,20.20
2015,09,30,17,11,20.30
2015,09,30,17,12,20.30
2015,09,30,17,13,20.30
2015,09,30,17,14,20.30
2015,09,30,17,15,20.30
2015,09,30,17,16,20.40
2015,09,30,17,17,20.40
2015,09,30,17,18,20.40
2015,09,30,17,19,20.40
2015,09,30,17,20,20.40
2015,09,30,17,21,20.40
2015,09,30,17,22,20.30
2015,09,30,17,23,20.30
2015,09,30,17,24,20.30
2015,09,30,17,25,20.20
2015,09,30,17,26,20.20
2015,09,30,17,27,20.10